Simultaneous Nadir Overpasses (SNOs) Predictions

Prediction of SNOs between GOES-16 and NOAA-21 Satellite Orbit:

Table of predicted SNOs for the next 14.0 days since TLE Epoch: 9/21/2024
Index Date Time (GOES-16) GOES-16 Lat,Lon NOAA-21 Lat,Lon Distance(km) Time Diff (sec)
1 09/21/2024 06:30:07 0.06, -75.19 0.35, -76.39 136.68 80
2 09/22/2024 06:14:05 0.07, -75.20 -0.66, -71.86 379.31 80
3 09/23/2024 18:33:25 -0.06, -75.21 -0.48, -77.19 224.43 80
4 09/24/2024 18:17:22 -0.06, -75.22 0.54, -72.66 291.83 80
5 09/26/2024 06:36:33 0.05, -75.22 0.68, -77.93 309.87 80
6 09/27/2024 06:17:50 0.05, -75.23 -0.34, -73.41 206.86 80
7 09/28/2024 18:39:50 -0.04, -75.25 -0.84, -78.72 395.51 80
8 09/29/2024 18:23:47 -0.04, -75.27 0.19, -74.20 121.95 80
9 10/01/2024 06:45:38 0.03, -75.29 0.95, -79.48 477.64 80
10 10/02/2024 06:24:15 0.03, -75.31 -0.03, -74.95 40.37 80
11 10/04/2024 18:27:32 -0.03, -75.37 -0.09, -75.74 42.25 80
